Location: B�hl
(48.6968°N, 8.1352°E)
Time: 02:04:08
(UTC+00:00)

SeaSat 1 - Pass Details

Date: 08 March 2021
Orbit: 744 x 747 km, 108.0° (Epoch: 12 April)

Event Time Altitude Azimuth Distance (km) Brightness Sun altitude
Rises 19:16:53 0° 28° (NNE) 3,203 5.6 -19.6°
Reaches altitude 10° 19:19:10 10° 28° (NNE) 2,275 4.8 -19.9°
Maximum altitude 19:24:07 85° 301° (WNW) 757 2.4 -20.7°
Drops below altitude 10° 19:29:03 10° 213° (SSW) 2,261 5.1 -21.5°
Sets 19:31:18 0° 213° (SSW) 3,181 5.9 -21.8°
